Martha's Vineyard, MA

4:50 AM EDT on August 23, 2017 (GMT -0400)
Martha's Vineyard

Weather History for KMVY - August, 2013

Change the Weather History Date:

Friday, August 9, 2013

  Actual Average Record
Temperature  
Mean Temperature 72 °F -  
Max Temperature 73 °F 79 °F 91 °F (2001)
Min Temperature 71 °F 64 °F 48 °F (1999)
Cooling Degree Days 7    
Growing Degree Days 22 (Base 50)    
Moisture  
Dew Point 70 °F    
Average Humidity 92    
Maximum Humidity 96    
Minimum Humidity 87    
Precipitation  
Precipitation 0.03 in - - ()
Sea Level Pressure  
Sea Level Pressure 29.95 in    
Wind  
Wind Speed 13 mph (SSW)    
Max Wind Speed 22 mph    
Max Gust Speed 31 mph    
Visibility 9 miles    
Events Rain    
Averages and records for this station are not official NWS values.
T = Trace of Precipitation, MM = Missing Value Source: NWS Daily Summary

Daily Weather History Graph

Daily Weather History Graph

Search for Another Location

Airport or City:

Trip Planner

Search our weather history database for the weather conditions in past years. The results will help you decide how hot, cold, wet, or windy it might be!

Date:

Astronomy

Aug. 09, 2013 Rise Set
Actual Time 5:45 AM EDT 7:49 PM EDT
Civil Twilight 5:15 AM EDT 8:19 PM EDT
Nautical Twilight 4:38 AM EDT 8:56 PM EDT
Astronomical Twilight 3:57 AM EDT 9:36 PM EDT
Moon 8:31 AM EDT (8/9) 8:54 PM EDT (8/9)
Length of Visible Light 15h 04m
Length of Day
14h 03m
Waxing Crescent, 7% of the Moon is Illuminated
Aug 9
Waxing Crescent
Aug 14
First Quarter
Aug 20
Full
Aug 28
Last Quarter
Sep 5
New

Hourly Weather History & Observations

Time (EDT) Temp. Dew Point Humidity Pressure Visibility Wind Dir Wind Speed Gust Speed Precip Events Conditions
12:30 AM 71.6 °F 69.8 °F 94% 30.09 in 10.0 mi SSW 9.2 mph - N/A   Partly Cloudy
12:53 AM 72.0 °F 70.0 °F 93% 30.08 in 10.0 mi South 11.5 mph - N/A   Partly Cloudy
1:36 AM 71.6 °F 69.8 °F 94% 30.08 in 10.0 mi SSW 8.1 mph - N/A   Mostly Cloudy
1:53 AM 71.1 °F 69.1 °F 93% 30.07 in 10.0 mi SSW 8.1 mph - N/A   Scattered Clouds
2:53 AM 71.1 °F 70.0 °F 96% 30.06 in 10.0 mi South 10.4 mph - N/A   Partly Cloudy
3:53 AM 72.0 °F 70.0 °F 93% 30.05 in 10.0 mi South 11.5 mph - N/A   Mostly Cloudy
4:04 AM 71.6 °F 69.8 °F 94% 30.05 in 10.0 mi South 12.7 mph - N/A   Mostly Cloudy
4:53 AM 72.0 °F 70.0 °F 93% 30.05 in 10.0 mi South 12.7 mph - N/A   Scattered Clouds
5:02 AM 71.6 °F 69.8 °F 94% 30.05 in 10.0 mi South 11.5 mph - N/A   Mostly Cloudy
5:10 AM 71.6 °F 69.8 °F 94% 30.05 in 10.0 mi South 13.8 mph 23.0 mph N/A   Scattered Clouds
5:53 AM 72.0 °F 70.0 °F 93% 30.05 in 10.0 mi South 10.4 mph - N/A   Scattered Clouds
6:53 AM 72.0 °F 70.0 °F 93% 30.04 in 10.0 mi South 15.0 mph - N/A   Partly Cloudy
7:53 AM 73.0 °F 70.0 °F 90% 30.04 in 10.0 mi South 11.5 mph - N/A   Partly Cloudy
8:27 AM 73.4 °F 69.8 °F 88% 30.03 in 10.0 mi South 12.7 mph - N/A   Mostly Cloudy
8:51 AM 73.4 °F 69.8 °F 88% 30.03 in 10.0 mi South 13.8 mph - N/A   Mostly Cloudy
8:53 AM 73.0 °F 70.0 °F 90% 30.02 in 10.0 mi South 13.8 mph - N/A   Mostly Cloudy
9:53 AM 73.0 °F 70.0 °F 90% 30.01 in 10.0 mi South 15.0 mph 23.0 mph 0.00 in Rain Light Rain
10:53 AM 73.0 °F 70.0 °F 90% 29.99 in 10.0 mi South 15.0 mph 24.2 mph 0.00 in   Overcast
11:01 AM 73.4 °F 69.8 °F 88% 29.99 in 10.0 mi South 17.3 mph 25.3 mph 0.00 in Rain Light Rain
11:17 AM 73.4 °F 69.8 °F 88% 29.98 in 10.0 mi South 16.1 mph - 0.00 in   Overcast
11:24 AM 73.4 °F 69.8 °F 88% 29.98 in 10.0 mi South 15.0 mph 23.0 mph 0.00 in   Overcast
11:53 AM 73.9 °F 70.0 °F 87% 29.96 in 10.0 mi South 18.4 mph 25.3 mph 0.00 in   Overcast
12:53 PM 73.9 °F 70.0 °F 87% 29.96 in 10.0 mi South 18.4 mph 26.5 mph 0.00 in Rain Light Rain
1:06 PM 73.4 °F 69.8 °F 88% 29.95 in 10.0 mi South 18.4 mph 29.9 mph 0.00 in Rain Light Rain
1:17 PM 73.4 °F 69.8 °F 88% 29.94 in 10.0 mi South 17.3 mph 26.5 mph 0.00 in Rain Light Rain
1:53 PM 72.0 °F 70.0 °F 93% 29.92 in 9.0 mi South 19.6 mph 29.9 mph 0.00 in Rain Light Rain
2:08 PM 71.6 °F 69.8 °F 94% 29.92 in 4.0 mi South 18.4 mph 27.6 mph 0.02 in Rain Rain
2:53 PM 71.1 °F 69.1 °F 93% 29.89 in 9.0 mi South 19.6 mph 25.3 mph 0.02 in   Overcast
3:08 PM 71.6 °F 69.8 °F 94% 29.88 in 10.0 mi South 19.6 mph 31.1 mph 0.01 in   Overcast
3:53 PM 73.0 °F 70.0 °F 90% 29.85 in 9.0 mi South 18.4 mph 28.8 mph 0.01 in   Overcast
4:00 PM 73.4 °F 69.8 °F 88% 29.85 in 10.0 mi South 21.9 mph 29.9 mph N/A   Overcast
4:53 PM 73.0 °F 71.1 °F 93% 29.84 in 9.0 mi South 20.7 mph 29.9 mph 0.00 in   Overcast
5:53 PM 73.9 °F 71.1 °F 91% 29.83 in 9.0 mi SSW 19.6 mph 28.8 mph N/A   Overcast
6:53 PM 73.0 °F 71.1 °F 93% 29.83 in 6.0 mi SSW 13.8 mph 28.8 mph N/A   Overcast
7:09 PM 73.4 °F 71.6 °F 94% 29.83 in 5.0 mi SSW 18.4 mph 26.5 mph N/A   Overcast
7:53 PM 73.0 °F 71.1 °F 93% 29.83 in 5.0 mi SW 15.0 mph 23.0 mph N/A   Overcast
8:22 PM 73.4 °F 71.6 °F 94% 29.83 in 7.0 mi SW 16.1 mph 29.9 mph N/A   Overcast
8:53 PM 73.0 °F 71.1 °F 93% 29.83 in 6.0 mi SW 12.7 mph 21.9 mph N/A   Overcast
9:51 PM 73.4 °F 71.6 °F 94% 29.83 in 5.0 mi SW 11.5 mph 19.6 mph N/A   Overcast
9:53 PM 73.0 °F 71.1 °F 93% 29.82 in 5.0 mi SW 10.4 mph 19.6 mph N/A   Overcast
10:53 PM 73.0 °F 71.1 °F 93% 29.84 in 5.0 mi SW 10.4 mph 21.9 mph N/A   Overcast
11:53 PM 73.0 °F 72.0 °F 96% 29.83 in 4.0 mi WSW 11.5 mph 18.4 mph N/A   Overcast